Back to catalog

COSMOS 2251 DEB

AliveLEO
NORAD 35593·DEBRIS·🇷🇺 Russia

Launched Jun 16, 1993 from Plesetsk Cosmodrome

Loading…

Next Passes (next 24 hours)

TLE

FreshSource: Space-Track

Epoch: Sep 14, 2026, 09:22 UTC

1 35593U 93036AML 26257.39029029  .00001463  00000-0  58204-3 0  9998
2 35593  74.0847 151.8093 0102645  90.0860 271.2050 14.26647789889955

Track COSMOS 2251 DEB in real time with AllMySat

Download on the App Store